Roswell, NM

7:37 PM MST on February 07, 2016 (GMT -0700)
Roswell Industrial

Weather History for KROW - January, 2014

Change the Weather History Date:

Wednesday, January 15, 2014

  Actual Average Record
Temperature  
Mean Temperature 39 °F 40 °F  
Max Temperature 59 °F 55 °F 78 °F (1995)
Min Temperature 19 °F 26 °F -3 °F (1964)
Degree Days  
Heating Degree Days 26 25  
Month to date heating degree days 371 381  
Since 1 July heating degree days 1817 1791  
Cooling Degree Days 0 0  
Month to date cooling degree days 0 0  
Year to date cooling degree days 0 0  
Moisture  
Dew Point 18 °F    
Average Humidity 49    
Maximum Humidity 77    
Minimum Humidity 21    
Precipitation  
Precipitation 0.00 in 0.01 in 0.24 in (1924)
Month to date precipitation 0.00 0.18  
Year to date precipitation 0.00 0.18  
Sea Level Pressure  
Sea Level Pressure 30.22 in    
Wind  
Wind Speed 6 mph (SSW)    
Max Wind Speed 17 mph    
Max Gust Speed 20 mph    
Visibility 10 miles    
Events      
T = Trace of Precipitation, MM = Missing Value Source: NWS Daily Summary

Daily Weather History Graph

Daily Weather History Graph

Search for Another Location

Airport or City:

Trip Planner

Search our weather history database for the weather conditions in past years. The results will help you decide how hot, cold, wet, or windy it might be!

Date:

Astronomy

Jan. 15, 2014 Rise Set
Actual Time 7:01 AM MST 5:13 PM MST
Civil Twilight 6:34 AM MST 5:40 PM MST
Nautical Twilight 6:04 AM MST 6:11 PM MST
Astronomical Twilight 5:34 AM MST 6:40 PM MST
Moon 5:10 PM MST (1/15) 6:21 AM MST (1/15)
Length of Visible Light 11h 05m
Length of Day
10h 11m
Full, 100% of the Moon is Illuminated
Jan 15
Full
Jan 15
Full
Jan 23
Last Quarter
Jan 30
New
Feb 6
First Quarter

Hourly Weather History & Observations

Time (MST) Temp. Windchill Dew Point Humidity Pressure Visibility Wind Dir Wind Speed Gust Speed Precip Events Conditions
12:51 AM 34.0 °F - 19.9 °F 56% 30.38 in 10.0 mi Calm Calm - N/A   Clear
1:51 AM 28.0 °F 20.8 °F 18.0 °F 66% 30.40 in 10.0 mi WSW 6.9 mph - N/A   Clear
2:51 AM 21.0 °F 16.2 °F 15.1 °F 78% 30.40 in 10.0 mi WSW 3.5 mph - N/A   Clear
3:51 AM 19.9 °F 14.9 °F 14.0 °F 78% 30.40 in 10.0 mi WSW 3.5 mph - N/A   Clear
4:51 AM 21.0 °F 14.6 °F 15.1 °F 78% 30.39 in 10.0 mi SW 4.6 mph - N/A   Clear
5:51 AM 23.0 °F - 16.0 °F 74% 30.41 in 10.0 mi Calm Calm - N/A   Clear
6:51 AM 21.9 °F - 15.1 °F 75% 30.40 in 10.0 mi Calm Calm - N/A   Clear
7:51 AM 28.0 °F 24.2 °F 18.0 °F 66% 30.41 in 10.0 mi West 3.5 mph - N/A   Clear
8:51 AM 36.0 °F 29.6 °F 21.0 °F 55% 30.37 in 10.0 mi South 8.1 mph - N/A   Clear
9:51 AM 39.9 °F 31.8 °F 21.0 °F 47% 30.35 in 10.0 mi South 15.0 mph - N/A   Clear
10:51 AM 44.1 °F 38.1 °F 19.9 °F 38% 30.32 in 10.0 mi South 11.5 mph - N/A   Clear
11:51 AM 48.9 °F - 21.0 °F 33% 30.23 in 10.0 mi South 13.8 mph - N/A   Clear
12:51 PM 53.1 °F - 19.9 °F 27% 30.16 in 10.0 mi South 11.5 mph - N/A   Clear
1:51 PM 55.9 °F - 19.0 °F 24% 30.14 in 10.0 mi SSE 10.4 mph - N/A   Clear
2:51 PM 57.9 °F - 19.0 °F 22% 30.11 in 10.0 mi South 11.5 mph - N/A   Clear
3:51 PM 59.0 °F - 19.0 °F 21% 30.08 in 10.0 mi South 11.5 mph - N/A   Clear
4:51 PM 54.0 °F - 19.0 °F 25% 30.07 in 10.0 mi South 4.6 mph - N/A   Clear
5:51 PM 48.0 °F - 18.0 °F 30% 30.08 in 10.0 mi South 4.6 mph - N/A   Clear
6:51 PM 41.0 °F 37.1 °F 17.1 °F 38% 30.08 in 10.0 mi SW 5.8 mph - N/A   Clear
7:51 PM 39.0 °F - 17.1 °F 41% 30.06 in 10.0 mi Calm Calm - N/A   Clear
8:51 PM 36.0 °F 31.1 °F 16.0 °F 44% 30.05 in 10.0 mi NE 5.8 mph - N/A   Clear
9:51 PM 36.0 °F - 17.1 °F 46% 30.04 in 10.0 mi Calm Calm - N/A   Clear
10:51 PM 36.0 °F 33.3 °F 18.0 °F 48% 30.02 in 10.0 mi Variable 3.5 mph - N/A   Clear
11:51 PM 35.1 °F 32.2 °F 18.0 °F 50% 30.01 in 10.0 mi Variable 3.5 mph - N/A   Clear